VIZARD-METEO (RS38S)

Last updated on Mon Sep 21 2026 00:03:14 GMT+0000 (Coordinated Universal Time)

1 57189U 23091Z 26263.56392411 .00013366 00000+0 35037-3 0 9994 2 57189 97.5001 335.1062 0008015 91.7405 268.4758 15.38773061179349
UTC large
Height (km)
Speed (km/s)
/
Latitude / Longitude
Inclination (degrees)
Orbital Period (minutes)
Azimuth
Elevation
Range (km)
Doppler Factor

Next 0 passes for location: London (51.5072 / 0.1276)

No passes found over London.
VIZARD-METEO (RS38S)